CW0630 Weather Reports


time (UTC)temp
F
wind
direction
speed
knots
gust
knots
rain 1hr
in
rain 24hr
in
rain mn
in
humidity
%
barometer
mb
20220124101029 24 217 0.9 0.9 0.00 0.00 0.00 84 1011.1
20220124091016 25 217 0.9 0.9 0.00 0.00 0.00 81 1010.3
20220124081017 27 217 0.9 2.6 0.00 0.00 0.00 77 1010.4
20220124071029 28 243 0.0 0.0 0.00 0.00 0.00 74 1009.9
20220124061012 29 236 0.0 0.9 0.00 0.00 0.00 75 1009.8
20220124051023 30 215 1.7 1.7 0.00 0.00 0.00 71 1009.7
20220124041026 31 187 2.6 3.5 0.00 0.00 0.00 69 1009.3
20220124031020 32 224 0.9 0.9 0.00 0.00 0.00 66 1009.2
20220124021017 33 198 2.6 2.6 0.00 0.00 0.00 63 1009.0
20220124011019 36 211 2.6 2.6 0.00 0.00 0.00 56 1009.3
20220124001017 40 196 3.5 3.5 0.00 0.00 0.00 49 1008.8
20220123231029 39 239 1.7 1.7 0.00 0.00 0.00 50 1009.0
20220123221028 42 204 4.3 4.3 0.00 0.00 0.00 44 1008.8
20220123211025 43 191 1.7 3.5 0.00 0.00 0.00 44 1009.3
20220123201020 45 257 5.2 5.2 0.00 0.00 0.00 38 1009.8
20220123191014 44 229 4.3 4.3 0.00 0.00 0.00 41 1010.9
20220123181016 43 259 0.0 4.3 0.00 0.00 0.00 44 1011.5
20220123171026 42 181 0.0 3.5 0.00 0.00 0.00 44 1013.1
20220123161015 40 183 0.0 2.6 0.00 0.00 0.00 44 1015.1
20220123151032 36 158 2.6 2.6 0.00 0.00 0.00 45 1015.9
20220123141023 31 175 0.0 0.0 0.00 0.00 0.00 49 1016.7
20220123131018 21 234 0.0 0.0 0.00 0.00 0.00 75 1017.2
20220123121019 20 234 0.0 0.0 0.00 0.00 0.00 73 1017.0
20220123111026 22 234 0.0 0.0 0.00 0.00 0.00 67 1016.2